Vertical_Velocity
-1 -1 1 1 -1 -0 -6 0 -3 0 6 -5 -0 1 0 -3 -0 1 -2 -0 2 2 1 1 -0 -1 -0 -1 -0 -1 1 -1 -3 1 -2 1 -1 -4 -2 -2 -3 -2 -1 -2
-1 -2 -1 -3 -2 -3 -1 -2 1 -2 -8 -1 5 5 -1 -3 2 2 2 -1 -2 -0 -0 -2 -1 -3 -1 0 -2 1 -1 -2 -2 -1 -1 0 -2 -2 -1 -1 1 -2 -0 -1
1 0 0 -5 -5 0 1 -1 6 -8 -4 1 -1 1 -4 -1 0 1 2 0 -0 -6 -3 3 -0 -3 -1 1 -0 -1 -0 -2 -0 1 -1 -1 -1 -2 1 1 -1 -3 -0 -3
-1 -1 -2 3 0 -0 -0 5 0 -1 0 1 4 -6 -0 4 0 1 -1 -1 -5 1 -3 -1 0 -3 -4 1 -1 -1 0 -0 0 -1 -1 -1 1 -2 2 -1 -2 -5 -2 -5
0 -0 -7 0 -6 0 -1 -3 -2 -2 3 -2 -2 2 -1 1 -3 -1 3 3 -1 -2 -7 -2 -0 -0 0 -0 0 0 -0 -0 1 -1 -2 -0 0 -1 0 -4 -3 -6 -2 -2
2 2 -1 -3 -1 -1 1 1 -0 -0 1 2 -1 1 -0 2 2 2 -0 -2 -4 -5 5 3 -3 -2 -0 -1 0 -0 -1 -2 -0 -1 -2 -2 -1 -1 -1 -2 -4 -1 -0 -0
-1 0 -7 5 -2 2 1 -2 1 1 -1 2 -0 1 -1 -1 0 -1 -3 -1 3 -1 2 -2 -3 1 -0 0 -1 -1 -1 -2 -1 -1 -2 -2 -1 -0 -0 -2 -1 -1 -1 -1
5 1 -8 -1 1 1 1 -2 -1 1 -0 0 -1 -1 -2 -2 -1 -1 -0 -0 -0 1 -1 -0 0 -0 0 -1 -2 -1 -1 1 -1 -2 -2 -1 -1 1 -1 -0 -1 -1 -1 -0
-11 -9 -0 2 0 1 -1 -0 -1 -2 -1 -0 -3 -4 -3 -6 -4 0 1 -1 0 1 1 -0 -0 -0 -1 -2 -2 -1 -1 -0 -1 -1 -0 -0 -1 -1 -0 -0 -2 -2 -1 0
3 1 -3 -1 -1 1 -1 3 -1 -0 0 2 -0 -0 -2 -2 -1 -0 1 0 -0 1 -0 -1 0 -1 -2 -2 -1 -1 -0 -0 -1 0 1 0 -2 -1 -1 -1 -1 -2 -2 -1
-6 -2 1 0 -0 0 3 1 0 1 0 2 1 -1 -3 -1 -1 0 1 1 -0 0 -0 -1 0 -0 -2 -1 0 1 -0 -0 -1 0 0 -1 -1 -1 -1 0 0 0 -1 -0
-0 0 -2 -2 -1 1 0 -1 1 1 0 -0 -1 -2 -4 -1 -0 -2 0 0 -0 0 1 -0 -0 -1 0 1 1 1 0 1 0 0 -0 -0 -1 1 1 0 0 -0 -1 -1
-4 -6 4 -0 1 -1 -1 0 -1 -2 -1 -1 -0 0 -2 -4 1 -2 0 2 1 1 -0 1 -0 -1 0 0 1 1 0 0 1 -0 0 1 1 1 -0 -1 -1 -0 0 1
0 4 3 1 -1 3 -0 0 0 -0 -1 -2 -1 0 -1 0 -4 1 1 1 -1 -1 1 1 -2 -1 -0 0 -0 1 -0 0 1 -0 -1 -0 -1 -0 -0 1 1 2 2 -1
1 0 2 3 1 -0 1 -1 -1 -1 -1 -1 -1 -1 0 0 1 1 -1 1 1 -1 -0 -1 -3 1 -1 0 1 -0 -0 -0 0 0 0 -0 -1 -1 -0 0 -0 -0 -1 -2
2 -0 1 2 1 -0 -0 -1 0 -0 -0 -0 -0 -0 -1 -0 0 1 0 3 -0 3 1 2 3 -2 -1 -1 0 0 -0 -1 1 0 -0 0 -0 -0 -0 -0 -0 -0 0 -0
-1 -1 -0 0 1 -0 -0 0 -1 -1 -0 -0 -0 -1 -1 -1 0 1 1 1 1 -0 1 0 1 -2 -6 4 -5 2 1 -0 0 0 0 -0 0 0 1 0 0 0 -0 -1
-1 0 -1 -1 1 0 -2 -2 -1 -3 -0 0 0 1 1 1 2 -1 -2 1 2 2 1 1 -1 1 3 -2 1 1 1 0 -0 -0 -0 0 0 0 0 0 0 0 -0 -1
2 -3 -3 -1 -2 -3 -2 0 -0 -1 1 1 1 1 1 -1 -2 -1 2 0 1 2 5 1 -0 -1 -3 5 1 1 1 1 -1 -1 -0 1 1 2 -1 -1 -1 -0 -0 -0
3 -0 -1 -3 -0 2 6 2 1 3 3 1 0 0 -1 -1 -1 3 0 2 -1 1 -2 -3 -2 -0 2 4 5 2 0 1 0 -1 -1 0 1 1 -0 -1 0 0 -0 -1
-1 4 3 2 2 2 0 -1 -1 0 2 1 2 3 2 1 -0 -2 -3 -1 -4 3 2 -0 2 4 9 8 1 3 1 1 1 -1 0 0 1 -1 -0 1 -0 0 0 -1
-1 -2 2 3 -0 0 -1 -3 -1 -3 -6 -2 -0 -0 -0 0 0 1 0 -0 -1 -0 0 -1 -0 1 2 0 2 5 3 2 1 -1 -0 1 2 1 -0 -0 1 -0 -3 -1
2 2 3 1 1 0 -0 0 -0 1 -0 -0 -0 -0 0 0 1 1 1 0 -0 0 1 1 2 1 1 0 3 3 5 1 1 2 0 -1 -2 -1 -1 0 -0 -0 -1 -1
0 2 1 -1 0 0 -1 -0 0 -0 0 -0 -0 -0 1 1 -0 1 -0 -1 -0 -0 -1 0 0 0 -0 -2 -1 -1 -1 3 3 0 0 1 1 2 1 0 0 -2 1 -1
2 0 -0 0 -0 -1 -0 -0 -0 -1 -1 -1 -0 -1 -0 1 1 -1 0 -0 -0 -1 -1 0 1 0 0 0 1 2 4 4 1 3 2 1 -0 0 0 0 0 0 -0 -1
-0 -1 -1 -1 -1 -1 -1 -1 -1 -1 -1 -1 -0 -0 0 0 -0 0 0 0 -0 -0 -1 0 0 1 1 1 -1 -1 2 1 1 1 0 0 1 1 1 0 0 -0 -0 -1
-0 0 0 -0 -1 -1 -1 -1 -1 -1 -1 -1 -1 -0 -0 -0 -0 -0 -0 -0 1 1 -1 -1 0 -1 -0 -1 -1 -1 1 1 0 0 1 1 2 1 0 0 -0 -0 -1 -1
Height
3045 3045 3046 3047 3047 3049 3049 3052 3055 3056 3057 3057 3058 3060 3060 3060 3060 3059 3059 3058 3056 3054 3053 3051 3049 3046 3045 3045 3045 3044 3043 3042 3042 3041 3039 3039 3037 3034 3033 3031 3029 3028 3026 3024
3043 3043 3044 3044 3044 3044 3045 3046 3047 3051 3053 3053 3055 3056 3056 3056 3057 3056 3056 3055 3054 3052 3050 3047 3044 3041 3040 3040 3040 3040 3039 3038 3036 3035 3034 3034 3030 3029 3027 3025 3023 3023 3021 3019
3042 3041 3041 3040 3036 3037 3038 3040 3043 3043 3046 3050 3051 3052 3052 3053 3054 3054 3054 3052 3051 3049 3047 3043 3039 3037 3035 3035 3036 3035 3034 3033 3032 3032 3031 3029 3026 3025 3023 3021 3020 3018 3017 3016
3039 3040 3041 3032 3031 3032 3032 3034 3036 3039 3042 3046 3047 3046 3049 3050 3049 3050 3050 3049 3049 3046 3043 3041 3038 3034 3032 3032 3032 3031 3030 3030 3030 3030 3028 3026 3024 3022 3021 3019 3017 3015 3015 3014
3037 3036 3032 3028 3028 3029 3029 3031 3031 3033 3038 3040 3042 3044 3045 3046 3046 3047 3047 3047 3046 3044 3043 3040 3036 3033 3031 3029 3029 3028 3028 3029 3029 3029 3027 3025 3023 3022 3021 3019 3017 3016 3016 3016
3036 3035 3032 3027 3027 3027 3029 3030 3028 3029 3032 3035 3038 3041 3041 3042 3043 3043 3044 3043 3043 3042 3041 3037 3035 3035 3033 3030 3029 3028 3029 3029 3030 3029 3028 3026 3025 3024 3022 3021 3020 3019 3018 3017
3033 3033 3027 3026 3025 3027 3029 3031 3027 3028 3030 3033 3035 3037 3038 3038 3039 3040 3041 3041 3040 3041 3038 3035 3035 3034 3033 3032 3031 3030 3030 3030 3029 3029 3028 3027 3026 3025 3024 3023 3022 3020 3019 3017
3030 3030 3026 3022 3024 3026 3026 3025 3027 3028 3029 3031 3033 3034 3035 3035 3036 3037 3038 3038 3037 3037 3034 3032 3033 3034 3034 3034 3032 3031 3031 3030 3029 3028 3028 3027 3026 3025 3025 3024 3022 3021 3019 3017
3024 3022 3021 3021 3021 3021 3023 3024 3025 3026 3027 3029 3029 3030 3031 3032 3032 3034 3035 3035 3035 3034 3031 3030 3032 3033 3033 3032 3030 3030 3030 3030 3029 3028 3028 3027 3026 3026 3024 3023 3021 3020 3018 3016
3019 3018 3018 3019 3019 3019 3020 3022 3023 3024 3025 3026 3027 3027 3028 3029 3029 3031 3032 3032 3032 3032 3029 3028 3029 3029 3030 3030 3029 3029 3029 3029 3029 3027 3026 3026 3026 3024 3023 3021 3019 3018 3016 3013
3014 3015 3015 3016 3016 3017 3018 3019 3020 3020 3021 3023 3024 3024 3025 3026 3026 3027 3028 3028 3029 3029 3027 3027 3027 3027 3027 3027 3027 3027 3027 3027 3027 3026 3025 3024 3023 3022 3020 3018 3016 3015 3012 3009
3010 3011 3010 3011 3013 3013 3015 3016 3017 3017 3018 3019 3020 3020 3021 3022 3023 3023 3024 3024 3025 3025 3025 3025 3024 3024 3024 3024 3024 3024 3024 3024 3024 3024 3023 3022 3021 3020 3018 3016 3014 3011 3009 3006
3006 3007 3007 3008 3009 3010 3010 3010 3011 3012 3013 3014 3015 3016 3016 3017 3018 3019 3019 3020 3020 3021 3021 3022 3022 3021 3021 3021 3021 3021 3021 3021 3021 3021 3020 3019 3018 3017 3015 3013 3010 3008 3005 3002
3001 3002 3002 3003 3003 3004 3005 3005 3005 3006 3006 3007 3008 3009 3010 3011 3012 3013 3014 3015 3015 3016 3017 3017 3018 3018 3018 3018 3017 3017 3018 3017 3017 3016 3016 3015 3014 3012 3011 3010 3007 3005 3002 2998
2996 2996 2996 2997 2998 2998 2998 2998 2998 2998 2998 2999 3001 3002 3003 3004 3005 3006 3007 3009 3010 3010 3011 3013 3013 3014 3013 3013 3013 3013 3013 3013 3012 3012 3012 3011 3009 3008 3006 3005 3002 3000 2996 2993
2990 2991 2991 2991 2992 2992 2992 2991 2990 2990 2990 2991 2993 2994 2995 2996 2997 2999 3000 3002 3003 3005 3006 3007 3008 3009 3008 3008 3008 3008 3008 3008 3008 3007 3007 3006 3005 3003 3001 2999 2997 2994 2991 2987
2985 2986 2987 2986 2986 2985 2984 2984 2983 2983 2983 2984 2985 2987 2988 2990 2991 2992 2993 2995 2997 2998 2999 3000 3002 3002 3002 3002 3003 3002 3002 3002 3002 3001 3001 3000 2999 2998 2996 2994 2992 2989 2986 2981
2980 2979 2979 2978 2978 2978 2978 2976 2975 2974 2974 2975 2977 2979 2982 2983 2985 2985 2985 2987 2989 2991 2992 2992 2994 2995 2996 2996 2996 2996 2996 2996 2996 2995 2995 2995 2994 2992 2991 2989 2986 2984 2980 2976
2974 2974 2974 2974 2974 2973 2973 2972 2970 2969 2968 2969 2970 2972 2975 2977 2979 2979 2979 2980 2982 2983 2985 2984 2985 2986 2987 2988 2988 2988 2988 2989 2989 2989 2989 2988 2988 2986 2985 2983 2981 2978 2974 2971
2971 2971 2972 2971 2971 2971 2970 2969 2968 2967 2967 2966 2967 2968 2970 2972 2973 2973 2974 2975 2976 2976 2976 2977 2978 2978 2979 2980 2980 2981 2981 2982 2982 2982 2982 2982 2981 2980 2978 2976 2974 2971 2968 2964
2971 2970 2970 2970 2970 2970 2969 2969 2968 2968 2967 2967 2967 2967 2967 2967 2967 2967 2967 2967 2968 2968 2969 2969 2969 2970 2970 2971 2972 2972 2973 2974 2975 2975 2975 2975 2974 2973 2971 2969 2967 2964 2961 2958
2969 2970 2970 2970 2970 2970 2970 2970 2970 2969 2969 2968 2968 2966 2965 2964 2963 2962 2960 2959 2958 2959 2960 2960 2961 2961 2961 2961 2963 2964 2965 2966 2967 2967 2968 2968 2967 2965 2964 2962 2960 2957 2954 2951
2968 2968 2970 2970 2970 2970 2970 2969 2968 2967 2966 2965 2964 2962 2961 2960 2958 2957 2956 2955 2953 2953 2952 2953 2953 2953 2954 2954 2955 2956 2958 2960 2961 2961 2959 2959 2958 2957 2956 2954 2952 2950 2947 2944
2966 2967 2968 2968 2968 2967 2966 2966 2964 2963 2961 2959 2957 2956 2955 2953 2952 2952 2951 2951 2950 2949 2948 2948 2948 2948 2949 2949 2950 2951 2954 2955 2955 2953 2952 2951 2950 2950 2948 2946 2945 2942 2940 2937
2964 2964 2965 2965 2964 2963 2962 2961 2959 2957 2955 2953 2951 2950 2949 2947 2947 2946 2945 2945 2945 2945 2945 2945 2945 2945 2945 2945 2945 2947 2948 2948 2948 2947 2946 2945 2944 2942 2941 2939 2937 2935 2932 2929
2961 2961 2961 2960 2959 2958 2956 2955 2954 2952 2950 2949 2947 2946 2944 2943 2941 2940 2940 2939 2939 2939 2939 2939 2939 2940 2941 2940 2940 2940 2941 2941 2941 2940 2939 2938 2937 2936 2934 2932 2930 2927 2925 2923
2956 2956 2956 2955 2954 2953 2951 2950 2948 2947 2946 2944 2943 2942 2940 2939 2937 2936 2935 2934 2933 2933 2932 2932 2932 2933 2934 2935 2934 2934 2935 2934 2934 2933 2932 2931 2930 2929 2927 2925 2923 2921 2919 2916